Вернуться в каталог

STARLINK-34384

АктивенСвязьVLEO
NORAD 64312·PAYLOAD·🇺🇸 United States

Запущен Jun 8, 2025 с Vandenberg Space Force Base

Loading…

Ближайшие Пролёты (ближайшие 24 часа)

TLE

СвежийSource: CelesTrak SupGP

Эпоха: Sep 14, 2026, 21:35 UTC

1 64312C 25123X   26257.89979167  .00007070  00000+0  24600-3 0  2572
2 64312  70.0001  75.7625 0003158 272.7875   2.6835 15.29566678    13

Отслеживайте STARLINK-34384 в реальном времени с AllMySat

Download on the App Store